C/2020 P1 ( NEOWISE )

Japanese version
Home page
Updated on September 6, 2020

---------------------------------------------------------------------

* Profile

Discovery Date August 2, 2020
Magnitude 19 mag
Discoverer Near-Earth Object Wide-field Infrared Survey Explorer

* Orbital Elements

Epoch 2020 Nov. 7.0 TT = JDT 2459160.5
T 2020 Oct. 20.16097 TT                                 Rudenko
q   0.3431646            (2000.0)            P               Q
z  +0.0024033      Peri.    8.94715     +0.50055073     -0.65408654
 +/-0.0006692      Node    53.40278     +0.74415022     -0.00965544
e   0.9991753      Incl.   44.94120     +0.44236796     +0.75635810
From 60 observations 2020 Aug. 2-28, mean residual 0".5.

* Finding Charts

* Magnitudes Graph

        m1 = 14.0 + 5 log d + 10.0 log r

---------------------------------------------------------------------

The orbital elements are published on M.P.E.C. 2020-R04.
The charts are made with StellaNavigator Ver.10 (AstroArts).
The magnitudes graphs are made with Comet for Windows.

---------------------------------------------------------------------

Copyright(C) Seiichi Yoshida (comet@aerith.net). All rights reserved.